Location: Unspecified
(0.0000°N, 0.0000°E)
Time: 07:17:11
(UTC+00:00)

Vanguard 1 Rocket - Visible Passes

Search period start: 02 December 2021 00:00
Search period end: 12 December 2021 00:00
Orbit: 650 x 4226 km, 34.3° (Epoch: 01 December)

Date Brightness Start Highest point End Pass type
(mag) Time Alt. Az. Time Alt. Az. Time Alt. Az.
02 Dec 10.7 03:47:41 13° NNW 03:51:23 14° N 04:00:18 10° NNE visible
03 Dec 10.9 02:40:30 12° NNE 02:40:30 12° NNE 02:42:51 10° NNE visible
03 Dec 11.0 05:01:46 10° NNW 05:12:41 18° NNE 05:26:45 10° NE visible
04 Dec 10.8 03:50:35 11° NNW 03:55:53 13° N 04:03:42 10° NNE visible
05 Dec 11.0 02:43:21 10° NNE 02:43:21 10° NNE 02:43:46 10° NNE visible
05 Dec 11.0 05:05:01 10° NNW 05:17:00 20° NNE 05:32:35 10° ENE visible
05 Dec 9.6 20:29:25 10° S 20:29:27 10° S 20:29:27 10° S visible
06 Dec 10.8 03:53:56 10° N 04:00:23 13° NNE 04:08:22 10° NE visible
07 Dec 11.0 05:07:47 10° NNW 05:20:57 23° NNE 05:38:23 10° ENE visible
07 Dec 9.3 20:31:21 10° SSW 20:32:19 15° SSW 20:32:19 15° SSW visible
08 Dec 10.9 03:57:16 10° N 04:04:43 14° NNE 04:14:10 10° NE visible
08 Dec 8.9 19:21:42 10° S 19:24:03 13° SSE 19:25:08 12° SE visible
09 Dec 10.9 05:10:17 10° NNW 05:24:30 27° NNE 05:43:49 10° E visible
09 Dec 9.2 20:33:46 10° SW 20:35:15 19° SW 20:35:15 19° SW visible
10 Dec 10.8 03:59:58 10° N 04:08:46 16° NNE 04:20:26 10° ENE visible
10 Dec 8.3 19:23:01 10° SSW 19:27:15 23° SSE 19:28:04 22° SE visible
11 Dec 10.9 05:12:37 10° NNW 05:27:39 32° NE 05:48:43 10° E visible
11 Dec 9.3 18:12:50 10° S 18:15:21 12° SSE 18:17:31 10° SE visible
11 Dec 9.1 20:36:34 10° WSW 20:38:12 20° WSW 20:38:12 20° WSW visible
